X

Important NEWS



New Hub Active

Miami is our new hub! Old members can request transfer via hr@dlxairways.net

Thank you very much and have nice flight.


Deluxe Airways.

X

Tours



Hello again, we created one nice test tour for all pilots to attend. also this is ment to be testing of our tour system

Available Tours

If you find some issues please inform us.

Thank you very much and have nice flight.


Deluxe Airways.

 METAR AND TAF INFORMATION
ArrayMETAR FOR LYBE
68277794 9 LYBE 092330Z 21004KT 9999 SCT040 06/05 Q1008 NOSIG LYBE 2018-12-09T23:30:00Z 44.82 20.28 6.0 5.0 210 4 6.21 29.763779 TRUE VFR METAR 99.0 LYBE 092300Z 24004KT CAVOK 06/05 Q1007 NOSIG LYBE 2018-12-09T23:00:00Z 44.82 20.28 6.0 5.0 240 4 6.21 29.734253 TRUE VFR METAR 99.0 LYBE 092230Z 23005KT 9999 SCT045 06/06 Q1007 NOSIG LYBE 2018-12-09T22:30:00Z 44.82 20.28 6.0 6.0 230 5 6.21 29.734253 TRUE VFR METAR 99.0 LYBE 092200Z 29008KT 9999 -RA BKN040 07/06 Q1008 NOSIG LYBE 2018-12-09T22:00:00Z 44.82 20.28 7.0 6.0 290 8 6.21 29.763779 TRUE -RA VFR METAR 99.0

 AIRPORT MAP

 RUNWAY INFORMATION
Runway 12 Runway length 11155 ft Runway width 148 ft
Runway elevation 318 ft Runway displaced threshold 0 ft Runway heading 122
Runway 30 Runway length 11155 ft Runway width 148 ft
Runway elevation 335 ft Runway displaced threshold 1312 ft Runway heading 302

 AIRPORT FREQUENCIES
Type APP Name APP Frequency 119.1 MHZ
Type ATIS Name INFO Frequency 122.925 MHZ
Type TWR Name TWR Frequency 118.1 MHZ

 AIRPORT NEAR NAVIGATION AIDS
Type VOR-DME Name Beograd Frequency 112300 KHZ
Type NDB Name Beograd Frequency 316 KHZ
Type NDB Name Beograd Frequency 380 KHZ
Type NDB Name Beograd Frequency 355 KHZ



Powered by Virtual Airlines Manager [v2.6.2]

Template code change by DeluxeAir